| time (UTC) | temp F | wind direction | speed MPH | gust MPH | rain 1hr in | rain 24hr in | rain mn in | humidity % | barometer mb |
| 20260906040005 | 49 | 298 | 3.0 | 6.0 | 0.00 | 0.09 | 0.00 | 53 | 1022.1 |
| 20260906033005 | 49 | 303 | 2.0 | 5.0 | 0.00 | 0.11 | 0.00 | 51 | 1021.7 |
| 20260906031505 | 49 | 312 | 2.0 | 5.0 | 0.00 | 0.11 | 0.00 | 51 | 1021.8 |
| 20260906030004 | 49 | 350 | 2.0 | 7.0 | 0.00 | 0.12 | 0.00 | 50 | 1021.7 |
| 20260906024505 | 49 | 328 | 2.0 | 5.0 | 0.00 | 0.12 | 0.00 | 49 | 1021.7 |
| 20260906023005 | 49 | 279 | 2.0 | 4.0 | 0.00 | 0.13 | 0.00 | 48 | 1021.6 |
| 20260906021504 | 49 | 283 | 1.0 | 4.0 | 0.00 | 0.13 | 0.00 | 47 | 1021.6 |
| 20260906020004 | 49 | 281 | 1.0 | 3.0 | 0.00 | 0.13 | 0.00 | 46 | 1021.6 |
| 20260906013004 | 50 | 335 | 1.0 | 3.0 | 0.00 | 0.13 | 0.00 | 45 | 1021.6 |
| 20260906011504 | 51 | 320 | 3.0 | 6.0 | 0.00 | 0.13 | 0.00 | 45 | 1021.2 |
| 20260906010005 | 51 | 348 | 2.0 | 5.0 | 0.00 | 0.13 | 0.00 | 44 | 1021.1 |
| 20260906004529 | 51 | 341 | 3.0 | 9.0 | 0.00 | 0.13 | 0.00 | 43 | 1021.2 |
| 20260906000008 | 52 | 1 | 4.0 | 7.0 | 0.00 | 0.13 | 0.00 | 42 | 1021.0 |
| 20260905234507 | 52 | 5 | 4.0 | 6.0 | 0.00 | 0.13 | 0.00 | 41 | 1021.0 |
| 20260905233008 | 53 | 5 | 3.0 | 7.0 | 0.00 | 0.13 | 0.00 | 41 | 1021.1 |
| 20260905230007 | 53 | 355 | 4.0 | 7.0 | 0.00 | 0.13 | 0.00 | 37 | 1020.8 |
| 20260905224507 | 53 | 314 | 3.0 | 5.0 | 0.00 | 0.13 | 0.00 | 36 | 1020.7 |
| 20260905221508 | 54 | 7 | 5.0 | 8.0 | 0.00 | 0.13 | 0.00 | 35 | 1020.7 |
| 20260905220010 | 54 | 345 | 4.0 | 8.0 | 0.00 | 0.13 | 0.00 | 35 | 1020.7 |
| 20260905213007 | 55 | 20 | 4.0 | 9.0 | 0.00 | 0.13 | 0.13 | 34 | 1020.4 |
| 20260905211508 | 55 | 6 | 4.0 | 11.0 | 0.00 | 0.13 | 0.13 | 33 | 1020.1 |
| 20260905210008 | 55 | 301 | 4.0 | 11.0 | 0.00 | 0.13 | 0.13 | 33 | 1020.2 |
| 20260905204508 | 55 | 329 | 4.0 | 13.0 | 0.00 | 0.13 | 0.13 | 33 | 1020.1 |
| 20260905203008 | 56 | 326 | 3.0 | 9.0 | 0.00 | 0.13 | 0.13 | 34 | 1020.0 |
| 20260905201507 | 56 | 288 | 3.0 | 6.0 | 0.00 | 0.13 | 0.13 | 34 | 1019.9 |
| 20260905200007 | 56 | 279 | 2.0 | 5.0 | 0.00 | 0.13 | 0.13 | 34 | 1019.7 |
| 20260905194507 | 56 | 327 | 3.0 | 8.0 | 0.00 | 0.13 | 0.13 | 33 | 1019.7 |
| 20260905193007 | 56 | 330 | 3.0 | 8.0 | 0.00 | 0.13 | 0.13 | 33 | 1019.4 |
| 20260905191507 | 57 | 357 | 3.0 | 5.0 | 0.00 | 0.13 | 0.13 | 34 | 1019.7 |
| 20260905183007 | 57 | 357 | 3.0 | 8.0 | 0.00 | 0.13 | 0.13 | 34 | 1018.9 |
| 20260905181507 | 58 | 10 | 2.0 | 5.0 | 0.00 | 0.13 | 0.13 | 34 | 1019.0 |
| 20260905180007 | 58 | 9 | 2.0 | 5.0 | 0.00 | 0.13 | 0.13 | 34 | 1018.8 |
| 20260905171507 | 60 | 11 | 4.0 | 12.0 | 0.00 | 0.13 | 0.13 | 33 | 1018.1 |
| 20260905170006 | 61 | 6 | 3.0 | 7.0 | 0.00 | 0.13 | 0.13 | 34 | 1018.3 |
| 20260905164507 | 61 | 316 | 4.0 | 6.0 | 0.00 | 0.13 | 0.13 | 34 | 1017.8 |
| 20260905163007 | 61 | 240 | 3.0 | 8.0 | 0.00 | 0.13 | 0.13 | 34 | 1017.7 |
| 20260905161506 | 62 | 335 | 4.0 | 11.0 | 0.00 | 0.13 | 0.13 | 33 | 1017.8 |
| 20260905153007 | 63 | 72 | 5.0 | 12.0 | 0.00 | 0.13 | 0.13 | 29 | 1017.5 |
| 20260905151506 | 64 | 251 | 4.0 | 11.0 | 0.00 | 0.13 | 0.13 | 27 | 1017.5 |
| 20260905150007 | 64 | 327 | 5.0 | 11.0 | 0.00 | 0.13 | 0.13 | 28 | 1017.6 |
| 20260905144507 | 63 | 280 | 4.0 | 10.0 | 0.00 | 0.13 | 0.13 | 28 | 1017.5 |
| 20260905143007 | 64 | 290 | 8.0 | 21.0 | 0.00 | 0.13 | 0.13 | 27 | 1017.5 |
| 20260905140007 | 65 | 232 | 8.0 | 17.0 | 0.00 | 0.13 | 0.13 | 26 | 1017.7 |
| 20260905134506 | 66 | 254 | 6.0 | 14.0 | 0.00 | 0.13 | 0.13 | 25 | 1017.7 |
| 20260905133006 | 65 | 298 | 8.0 | 22.0 | 0.00 | 0.13 | 0.13 | 26 | 1017.6 |
| 20260905131506 | 64 | 284 | 9.0 | 17.0 | 0.00 | 0.13 | 0.13 | 26 | 1017.8 |
| 20260905130006 | 65 | 89 | 5.0 | 13.0 | 0.00 | 0.13 | 0.13 | 26 | 1017.9 |
| 20260905124506 | 64 | 270 | 7.0 | 17.0 | 0.00 | 0.13 | 0.13 | 26 | 1017.8 |
| 20260905123007 | 64 | 352 | 6.0 | 15.0 | 0.00 | 0.13 | 0.13 | 25 | 1017.8 |
| 20260905121506 | 64 | 302 | 5.0 | 12.0 | 0.00 | 0.13 | 0.13 | 27 | 1018.0 |
| 20260905120006 | 65 | 23 | 5.0 | 11.0 | 0.00 | 0.13 | 0.13 | 29 | 1017.7 |
| 20260905114506 | 64 | 76 | 5.0 | 11.0 | 0.00 | 0.13 | 0.13 | 29 | 1017.7 |
| 20260905113007 | 64 | 354 | 7.0 | 17.0 | 0.00 | 0.13 | 0.13 | 27 | 1017.9 |
| 20260905110006 | 62 | 276 | 5.0 | 15.0 | 0.00 | 0.13 | 0.13 | 31 | 1017.8 |
| 20260905104506 | 62 | 344 | 6.0 | 15.0 | 0.00 | 0.13 | 0.13 | 31 | 1017.7 |
| 20260905103006 | 61 | 250 | 8.0 | 15.0 | 0.00 | 0.13 | 0.13 | 34 | 1017.7 |
| 20260905101505 | 61 | 264 | 8.0 | 15.0 | 0.00 | 0.13 | 0.13 | 35 | 1017.8 |
| 20260905093005 | 58 | 261 | 4.0 | 11.0 | 0.01 | 0.13 | 0.13 | 45 | 1017.9 |
| 20260905091506 | 58 | 286 | 5.0 | 11.0 | 0.01 | 0.13 | 0.13 | 46 | 1017.9 |
| 20260905090005 | 57 | 305 | 5.0 | 10.0 | 0.01 | 0.13 | 0.13 | 51 | 1017.8 |
| 20260905084505 | 56 | 222 | 6.0 | 16.0 | 0.01 | 0.13 | 0.13 | 53 | 1017.5 |
| 20260905083006 | 55 | 297 | 4.0 | 8.0 | 0.00 | 0.12 | 0.12 | 61 | 1017.5 |
| 20260905081506 | 55 | 130 | 4.0 | 8.0 | 0.00 | 0.12 | 0.12 | 63 | 1017.6 |
| 20260905080006 | 54 | 35 | 4.0 | 9.0 | 0.00 | 0.12 | 0.12 | 64 | 1017.4 |
| 20260905073006 | 53 | 19 | 3.0 | 6.0 | 0.00 | 0.12 | 0.12 | 71 | 1017.0 |
| 20260905071505 | 53 | 243 | 3.0 | 6.0 | 0.00 | 0.12 | 0.12 | 75 | 1016.7 |
| 20260905070006 | 52 | 292 | 5.0 | 13.0 | 0.00 | 0.12 | 0.12 | 75 | 1016.9 |
| 20260905064505 | 51 | 292 | 5.0 | 10.0 | 0.00 | 0.12 | 0.12 | 75 | 1016.9 |
| 20260905063006 | 51 | 263 | 5.0 | 11.0 | 0.00 | 0.12 | 0.12 | 74 | 1017.0 |
| 20260905060005 | 51 | 252 | 4.0 | 8.0 | 0.05 | 0.12 | 0.12 | 71 | 1016.4 |
| 20260905054505 | 51 | 252 | 6.0 | 10.0 | 0.07 | 0.12 | 0.12 | 67 | 1015.5 |
| 20260905053005 | 51 | 284 | 4.0 | 8.0 | 0.08 | 0.12 | 0.12 | 65 | 1016.0 |
| 20260905051505 | 52 | 353 | 4.0 | 7.0 | 0.06 | 0.09 | 0.09 | 62 | 1016.0 |
| 20260905050005 | 53 | 304 | 4.0 | 11.0 | 0.04 | 0.07 | 0.07 | 58 | 1016.1 |
| 20260905044505 | 54 | 2 | 4.0 | 9.0 | 0.01 | 0.05 | 0.05 | 55 | 1016.3 |
| 20260905041505 | 54 | 312 | 3.0 | 8.0 | 0.01 | 0.04 | 0.04 | 61 | 1015.8 |